This demonstration page uses our WeatherBlox Daily Observations layout. Learn more.

Left ArrowRight Arrow

Hourly Observations for February 18, 2016

Temp ( °F °C ) Dew Point ( °F °C ) Humidity (%) Winds ( mph kmh ) Pressure ( in mb ) Visibility ( mi km ) Precip ( " mm )
12:54 am 00:54 Clear 42 5.6 33 0.6 71 71 ESE 6 9 29.98 1015 10 16 0.00 0.00
1:54 am 01:54 Clear 41 5 33 0.6 73 73 SE 9 15 29.95 1014 10 16 0.00 0.00
2:54 am 02:54 Clear 40 4.4 32 0 73 73 SE 8 13 29.92 1013 10 16 0.00 0.00
3:54 am 03:54 Clear 41 5 33 0.6 73 73 SE 10 17 29.89 1012 10 16 0.00 0.00
4:54 am 04:54 Clear 43 6.1 33 0.6 68 68 SE 9 15 29.85 1011 10 16 0.00 0.00
5:54 am 05:54 Clear 43 6.1 33 0.6 68 68 SE 12 19 29.81 1010 10 16 0.00 0.00
6:54 am 06:54 Clear 42 5.6 33 0.6 71 71 SE 9 15 29.79 1009 10 16 0.00 0.00
7:54 am 07:54 Sunny 43 6.1 34 1.1 71 71 SSE 12 19 29.78 1009 10 16 0.00 0.00
8:54 am 08:54 Sunny 46 7.8 35 1.7 66 66 S 14 22 29.76 1008 10 16 0.00 0.00
9:54 am 09:54 Sunny 49 9.4 38 3.3 66 66 S 17 28 29.71 1006 10 16 0.00 0.00
10:54 am 10:54 Sunny 55 12.8 41 5 59 59 S 20 31 29.68 1005 10 16 0.00 0.00
11:54 am 11:54 Sunny 59 15 43 6.1 56 56 S 22 35 29.64 1004 10 16 0.00 0.00
12:54 pm 12:54 Sunny 62 16.7 44 6.7 52 52 S 23 37 29.60 1002 10 16 0.00 0.00
1:54 pm 13:54 Sunny 65 18.3 45 7.2 49 49 S 22 35 29.55 1001 10 16 0.00 0.00
2:54 pm 14:54 Sunny 67 19.4 47 8.3 49 49 S 12 19 29.54 1000 10 16 0.00 0.00
3:54 pm 15:54 Sunny 69 20.6 47 8.3 45 45 S 13 20 29.50 999 10 16 0.00 0.00
4:54 pm 16:54 Sunny 69 20.6 48 8.9 47 47 S 8 13 29.49 999 10 16 0.00 0.00
5:54 pm 17:54 Sunny 59 15 46 7.8 62 62 S 8 13 29.48 998 10 16 0.00 0.00
6:54 pm 18:54 Clear 57 13.9 45 7.2 64 64 SSE 8 13 29.47 998 10 16 0.00 0.00
7:54 pm 19:54 Clear 54 12.2 44 6.7 69 69 S 9 15 29.46 998 10 16 0.00 0.00
8:54 pm 20:54 Clear 61 16.1 48 8.9 63 63 WSW 6 9 29.45 997 10 16 0.00 0.00
9:54 pm 21:54 Clear 62 16.7 49 9.4 62 62 S 17 28 29.41 996 10 16 0.00 0.00
10:54 pm 22:54 Clear 61 16.1 49 9.4 65 65 S 15 24 29.40 996 10 16 0.00 0.00
11:54 pm 23:54 Clear 58 14.4 48 8.9 70 70 S 12 19 29.37 995 10 16 0.00 0.00

Powered by AerisWeather